Flag for Panama Weather past 2 weeks in Panama, Panama

Now
90 °F

Scattered clouds.


Feels Like: 103 °F
Forecast: 78 / 86 °F
Wind: 9 mph from South

Location: Marcos A. Gelabert

Current Time: Oct 23, 2014 at 12:20:50 PM

Latest Report: Oct 23, 2014 at 12:00 PM


Visibility: N/A

Pressure: 29.86 "Hg

Humidity: 67%

Dew point: 77 °F

Location of PanamaLocation

Historic Weather in Panama — Graph

°F

Panama temperature yesterday

Maximum temperature yesterday: 90 °F (at 1:00 PM)
Minimum temperature yesterday: 79 °F (at 7:00 AM)
Average temperature yesterday: 85 °F

Past Weeks' High & Low Weather Summary

 TemperatureHumidityPressure
High91 °F (Oct 15, 2:00 PM)100% (Oct 16, 6:00 AM)29.95 "Hg (Oct 16, 6:00 AM)
Low73 °F (Oct 18, 6:00 AM)59% (Oct 15, 2:00 PM)29.74 "Hg (Oct 21, 4:00 PM)
Average82 °F80%29.86 "Hg
* Reported Oct 8 11:00 AM — Oct 23 11:00 AM, Panama, Weather by CustomWeather, © 2014

Note: Actual official high and low records may vary slightly from our data, if they occured in-between our weather recording intervals... More about our weather records

Advertising

Panama weather history for previous 24 hours

 ConditionsComfort  
Time TempWeatherWind HumidityBarometerVisibility
11:00 AM
Oct 23
90 °FPassing clouds.6 mph67%29.89 "HgN/A
10:00 AM86 °FScattered clouds.No wind75%29.89 "HgN/A
9:00 AM84 °FPassing clouds.5 mph79%29.86 "HgN/A
8:00 AM81 °FPassing clouds.No wind89%29.86 "HgN/A
7:00 AM79 °FPassing clouds.No wind94%29.86 "Hg6 mi
6:00 AM79 °FPassing clouds.No wind94%29.83 "HgN/A
10:00 PM
Oct 22
82 °FPassing clouds.1 mph84%29.86 "HgN/A
9:00 PM82 °FPassing clouds.1 mph84%29.86 "HgN/A
8:00 PM82 °FPassing clouds.2 mph79%29.83 "HgN/A
7:00 PM84 °FPassing clouds.3 mph74%29.83 "HgN/A
6:00 PM84 °FPassing clouds.5 mph74%29.80 "HgN/A
5:00 PM86 °FPassing clouds.6 mph70%29.77 "HgN/A
4:00 PM88 °FPassing clouds.6 mph66%29.80 "HgN/A
3:00 PM90 °FPassing clouds.6 mph59%29.80 "HgN/A
2:00 PM88 °FPassing clouds.6 mph70%29.83 "HgN/A
1:00 PM90 °FPassing clouds.7 mph67%29.83 "HgN/A
12:00 PM88 °FPassing clouds.8 mph70%29.86 "HgN/A
Weather by CustomWeather, © 2014

See weather overviewHow to use our weather pages